Location: Canyon City
(32.5951°N, 116.5278°W)
Time: 03:06:42
(UTC+00:00)

Cosmos 676 Rocket - Pass Details

Date: 08 September 2024
Orbit: 751 x 781 km, 74.0° (Epoch: 03 October)

Event Time Altitude Azimuth Distance (km) Brightness Sun altitude
Exits shadow 12:29:11 - 213° (SSW) 2,403 6.1 -12.5°
Reaches altitude 10° 12:29:34 10° 214° (SW) 2,263 6.0 -12.5°
Maximum altitude 12:34:31 49° 289° (WNW) 959 4.2 -11.5°
Drops below altitude 10° 12:39:32 10° 5° (N) 2,281 6.7 -10.4°
Sets 12:41:59 0° 11° (N) 3,213 7.6 -9.9°
